Location: Bastelaar
(51.0950°N, 3.8602°E)
Time: 17:56:57
(UTC+00:00)

CZ-2D R/B - Pass Details

Date: 18 November 2025
Orbit: 404 x 412 km, 97.4° (Epoch: 09 December)

Event Time Altitude Azimuth Distance (km) Brightness Sun altitude
Rises 16:24:08 0° 137° (SE) 2,332 6.3 -5.2°
Reaches altitude 10° 16:26:19 10° 123° (ESE) 1,473 5.2 -5.5°
Maximum altitude 16:28:56 24° 67° (ENE) 887 3.8 -5.9°
Drops below altitude 10° 16:31:34 10° 11° (N) 1,479 5.2 -6.3°
Sets 16:33:46 0° 357° (N) 2,344 6.3 -6.6°
